This is the latest recevied weather packets stored in our database for station/object KE5YIM-13. If no packets are shown the sender has not sent any weather packets the latest 10 day(s).
| Time | Temp. | Humidity | Pressure | Rain* | Wind** | Luminosity | Snow |
|---|---|---|---|---|---|---|---|
| 1777905206 | 17.78° C | 42% | 1013.6 hPa | 0 mm | - | 668 W/m² | - |
| 1777904904 | 17.22° C | 43% | 1013.6 hPa | 0 mm | - | 656 W/m² | - |
| 1777904601 | 16.67° C | 45% | 1013.7 hPa | 0 mm | - | 644 W/m² | - |
| 1777904298 | 16.67° C | 43% | 1013.6 hPa | 0 mm | - | 636 W/m² | - |
| 1777903995 | 16.67° C | 44% | 1013.7 hPa | 0 mm | - | 619 W/m² | - |
| 1777903692 | 16.67° C | 42% | 1013.5 hPa | 0 mm | - | 608 W/m² | - |
| 1777903387 | 16.67° C | 42% | 1013.7 hPa | 0 mm | - | 597 W/m² | - |
| 1777903084 | 16.67° C | 44% | 1013.7 hPa | 0 mm | - | 583 W/m² | - |
| 1777902780 | 16.11° C | 44% | 1013.7 hPa | 0 mm | - | 569 W/m² | - |
| 1777902478 | 16.11° C | 43% | 1013.9 hPa | 0 mm | - | 557 W/m² | - |
| 1777902175 | 16.67° C | 42% | 1013.7 hPa | 0 mm | - | 542 W/m² | - |
| 1777901873 | 16.67° C | 43% | 1013.8 hPa | 0 mm | - | 524 W/m² | - |
| 1777901570 | 16.11° C | 42% | 1013.8 hPa | 0 mm | - | 512 W/m² | - |
| 1777901267 | 16.11° C | 41% | 1014.1 hPa | 0 mm | - | 499 W/m² | - |
| 1777900965 | 15.56° C | 41% | 1014.1 hPa | 0 mm | - | 489 W/m² | - |
| 1777900662 | 15.56° C | 42% | 1014.3 hPa | 0 mm | - | 434 W/m² | - |
| 1777900359 | 15.56° C | 42% | 1014.2 hPa | 0 mm | - | 447 W/m² | - |
| 1777900056 | 15.56° C | 42% | 1014.4 hPa | 0 mm | - | 430 W/m² | - |
| 1777899752 | 15° C | 47% | 1014.4 hPa | 0 mm | - | 413 W/m² | - |
| 1777899449 | 15° C | 47% | 1014.6 hPa | 0 mm | - | 396 W/m² | - |
| 1777899147 | 14.44° C | 47% | 1014.4 hPa | 0 mm | - | 380 W/m² | - |
| 1777898845 | 14.44° C | 47% | 1014.4 hPa | 0 mm | - | 364 W/m² | - |
| 1777898542 | 13.89° C | 51% | 1014.5 hPa | 0 mm | - | 348 W/m² | - |
| 1777898239 | 13.89° C | 50% | 1014.6 hPa | 0 mm | - | 330 W/m² | - |
| 1777897936 | 13.33° C | 50% | 1014.6 hPa | 0 mm | - | 314 W/m² | - |
* Rain latest hour (hover to see other rain measurements)
** Current wind speed in m/s (hover to see current wind gust speed)